User: anonymous   Login
Location: Caltech
(34.1382°N, 118.1253°W)
Time: 20:21:15
(UTC-08:00)
Language:

Oscar 10/S400 - Orbit

View from above orbital plane
View from above orbital plane
View from above satellite
View from above satellite

Ground track
Ground track

The orbit data is extracted from the following two-line orbital elements,

1 14129U 83058B   15065.33745280 -.00000106  00000-0  00000+0 0  9997
2 14129 025.8132 171.1927 6073467 078.0007 352.8330 02.05871970210649
Epoch (UTC): 06 March 2015 08:05:55
Eccentricity: 0.6073467
inclination: 25.8132°
perigee height: 3871 km
apogee height: 35576 km
right ascension of ascending node: 171.1927°
argument of perigee: 78.0007°
revolutions per day: 2.05871970
mean anomaly at epoch: 352.8330°
orbit number at epoch: 21064

The dashed part of the orbit path shows where the satellite is in the earth's shadow,  

DLR